Weather observations for the past three days for
Santa Maria Public Airport/Capt G Allan Hancock Field
Imperial (Metric)
Date Time (pdt) Wind (mph) Vis. (mi.) Weather Sky Cond. Temperature (ºF) Relative Humidity Wind Chill (°F) Heat Index (°F) Pressure Precipitation (in)
Air Dwpt 6 hour altimeter (in) sea level (mb) 1 hr 3 hr 6 hr
Max. Min.
14 04:51 NW 6 5.00 Fog/Mist OVC003 53.1 53.1 55 53.1 100% 30 1016.1
14 03:51 NW 6 5.00 Fog/Mist OVC003 53.1 53.1 100% 29.99 1015.7
14 02:51 N 7 5.00 Fog/Mist OVC003 53.1 53.1 100% 29.99 1015.6
14 01:51 NW 8 7.00 Overcast OVC007 54 53.1 97% 30.01 1016.6
14 00:51 NW 6 6.00 Fog/Mist OVC006 54 54 100% 30.03 1017.0
13 23:51 W 3 7.00 Overcast OVC009 55 54 96% 30.04 1017.4
13 22:51 W 8 7.00 Fair CLR 54 53.1 64 54 97% 30.04 1017.6
13 21:51 NW 6 7.00 Fair CLR 54 53.1 97% 30.04 1017.4
13 20:51 NW 9 7.00 Partly Cloudy SCT009 55.9 54 93% 30.03 1017.2
13 19:51 NW 9 7.00 Fair CLR 57.9 54 87% 30.03 1017.0
13 18:51 NW 13 8.00 A Few Clouds FEW015 61 55 81% 30.03 1017.0
13 17:51 NW 14 8.00 A Few Clouds FEW016 64 55.9 75% 30.02 1016.6
13 16:51 W 13 10.00 Partly Cloudy SCT019 66.9 57 71.1 61 71% 30.02 1016.6
13 15:51 NW 12 10.00 Partly Cloudy SCT022 66.9 57 71% 30.02 1016.6
13 14:51 Calm 8.00 Partly Cloudy SCT020 70 57.9 66% 30.02 1016.6
13 13:51 NW 5 10.00 Mostly Cloudy BKN017 66 57 73% 30.03 1016.9
13 12:51 NW 8 7.00 Overcast OVC012 63 57 81% 30.04 1017.2
13 11:51 NW 6 6.00 Fog/Mist OVC010 62.1 57.9 86% 30.03 1017.1
13 10:51 SW 5 6.00 Fog/Mist OVC009 61 57.9 61 57 90% 30.01 1016.3
13 09:51 Calm 6.00 Fog/Mist OVC008 60.1 57 90% 30 1016.1
13 08:51 Calm 3.00 Fog/Mist OVC005 57.9 57.9 100% 30 1015.9
13 07:51 Calm 3.00 Fog/Mist OVC004 57 57 100% 29.98 1015.5
13 06:51 Calm 4.00 Fog/Mist OVC004 57 57 100% 29.97 1014.9
13 05:51 Calm 5.00 Fog/Mist OVC004 57 57 100% 29.95 1014.5
13 04:51 W 3 6.00 Fog/Mist OVC005 57 57 57.9 57 100% 29.94 1014.1
13 03:51 NW 3 6.00 Fog/Mist OVC006 57 57 100% 29.94 1014.0
13 02:51 NW 3 7.00 Overcast OVC006 57.9 57 97% 29.95 1014.1
13 01:51 W 5 7.00 Overcast OVC006 57.9 57 97% 29.95 1014.4
13 00:51 Calm 7.00 Overcast OVC006 57.9 57 97% 29.95 1014.4
12 23:51 NW 5 5.00 Fog/Mist OVC006 57.9 57 97% 29.95 1014.5
12 22:51 NW 3 6.00 Fog/Mist OVC008 57.9 57 63 57 97% 29.95 1014.5
12 21:51 NW 3 6.00 Fog/Mist OVC008 57.9 57 97% 29.95 1014.5
12 20:51 NW 6 8.00 Overcast OVC008 57.9 55.9 93% 29.95 1014.4
12 19:51 NW 9 7.00 Overcast OVC008 59 57 93% 29.95 1014.4
12 18:51 NW 10 7.00 Overcast OVC010 60.1 57 90% 29.94 1014.1
12 17:51 NW 10 7.00 Overcast OVC012 62.1 57.9 86% 29.95 1014.4
12 16:51 NW 8 8.00 Overcast OVC012 63 57.9 64 60.1 84% 29.96 1014.8
12 15:51 NW 12 7.00 Overcast OVC013 64 57.9 81% 29.97 1015.2
12 14:51 NW 12 8.00 Overcast OVC010 63 57.9 84% 29.98 1015.4
12 13:51 NW 12 8.00 Overcast OVC008 62.1 59 90% 29.99 1015.7
12 12:51 W 9 8.00 Overcast OVC009 61 59 93% 30 1016.0
12 11:51 W 3 6.00 Fog/Mist OVC006 61 60.1 97% 29.99 1015.9
12 10:51 W 6 6.00 Fog/Mist OVC006 60.1 60.1 60.1 55 100% 29.99 1015.6
12 09:51 W 3 4.00 Fog/Mist OVC006 59 59 100% 29.98 1015.5
12 08:51 Calm 1.75 Fog/Mist OVC003 57 57 100% 29.98 1015.3
12 07:51 Calm 1.50 Fog/Mist OVC003 57 57 100% 29.96 1014.6
12 06:51 W 3 1.00 Fog/Mist OVC002 55.9 55.9 100% 29.94 1014.0
12 05:51 Calm 1.75 Fog/Mist OVC002 55.9 55.9 100% 29.93 1013.6
12 04:51 Calm 1.75 Fog/Mist OVC004 55 55 55.9 54 100% 29.92 1013.1
12 03:51 Calm 1.25 Fog/Mist OVC002 55 55 100% 29.91 1012.9
12 02:51 Calm 1.75 Fog/Mist OVC003 55 55 100% 29.91 1013.0
12 01:51 Calm 8.00 Overcast OVC005 55 55 100% 29.92 1013.2
12 00:51 SW 5 6.00 Fog/Mist OVC003 54 54 100% 29.92 1013.1
11 23:51 W 5 6.00 Fog/Mist OVC004 55 55 100% 29.92 1013.2
11 22:51 Calm 4.00 Fog/Mist OVC003 55 55 70 55 100% 29.91 1013.0
11 21:51 Calm 4.00 Fog/Mist OVC002 55 55 100% 29.9 1012.7
11 20:51 NW 5 6.00 Fog/Mist OVC004 55.9 55.9 100% 29.88 1012.1
11 19:51 W 7 6.00 Fog/Mist CLR 59 55 87% 29.88 1011.9
11 18:51 NW 7 7.00 Fair CLR 64.9 55.9 73% 29.86 1011.4
11 17:51 NW 8 7.00 Fair CLR 66.9 57 71% 29.87 1011.7
11 16:51 Vrbl 7 7.00 Fair CLR 69.1 57 73.9 66.9 66% 29.88 1011.9
11 15:51 N 7 10.00 Fair CLR 68 57 68% 29.89 1012.5
11 14:51 NW 12 10.00 Fair CLR 69.1 57 66% 29.91 1012.9
11 13:51 NW 15 G 21 8.00 Fair CLR 71.1 57 61% 29.91 1012.9
11 12:51 SW 7 7.00 Fair CLR 72 55.9 57% 29.91 1012.9
11 11:51 SW 8 7.00 Fair CLR 68 57 68% 29.92 1013.3
11 10:51 W 9 8.00 Fair CLR 70 57 70 51.1 64% 29.91 1012.8
11 09:51 Vrbl 3 7.00 Fair CLR 64 55 73% 29.91 1012.9
11 08:51 SE 3 6.00 Fog/Mist BKN006 55.9 54 93% 29.92 1013.3
11 07:51 Calm 2.00 Fog/Mist OVC003 53.1 53.1 100% 29.92 1013.4
11 06:51 SW 5 1.00 Fog/Mist OVC002 51.1 51.1 100% 29.91 1013.1
11 05:51 SW 3 0.75 Fog/Mist OVC002 51.1 51.1 100% 29.9 1012.6
Date Time (pdt) Wind (mph) Vis. (mi.) Weather Sky Cond. Air Dwpt Max. Min. Relative Humidity Wind Chill (°F) Heat Index (°F) altimeter (in) sea level (mb) 1 hr 3 hr 6 hr
6 hour
Temperature (ºF) Pressure Precipitation (in)